Weather History for Central Park, NY

Change the Weather History Date:

Saturday, July 28, 2012

  Actual Average Record
Temperature  
Mean Temperature 75 °F 77 °F  
Max Temperature 81 °F 84 °F 97 °F (1999)
Min Temperature 68 °F 69 °F 57 °F (1903)
Degree Days  
Heating Degree Days 0 0  
Month to date heating degree days 0 0  
Since 1 June heating degree days 15 19  
Since 1 July heating degree days 0 0  
Cooling Degree Days 10 12  
Month to date cooling degree days 404 324  
Year to date cooling degree days 720 605  
Since 1 June cooling degree days 605 536  
Growing Degree Days 24 (Base 50)    
Moisture  
Dew Point 70 °F    
Average Humidity 80    
Maximum Humidity 97    
Minimum Humidity 62    
Precipitation  
Precipitation 0.18 in 0.17 in 3.11 in (1913)
Month to date precipitation 4.20 4.09  
Year to date precipitation 21.67 28.29  
Snow  
Snow 0.00 in 0.00 in 0.00 in (2002)
Month to date snowfall 0.0 0.0  
Since 1 July snowfall 0.0 0.0  
Snow Depth 0.00 in    
Sea Level Pressure  
Sea Level Pressure 29.92 in    
Wind  
Wind Speed 5 mph (ENE)    
Max Wind Speed 12 mph    
Max Gust Speed 19 mph    
Visibility 6 miles    
Events Rain    
T = Trace of Precipitation, MM = Missing Value Source: NWS Daily Summary

Daily Weather History Graph

Daily Weather History Graph

Search for Another Location

Airport:

Trip Planner

Search our weather history database for the weather conditions in past years. The results will help you decide how hot, cold, wet, or windy it might be!

Date:

Astronomy

Jul. 28, 2012 Rise Set
Actual Time 5:49 AM EDT 8:15 PM EDT
Civil Twilight 5:17 AM EDT 8:46 PM EDT
Nautical Twilight 4:39 AM EDT 9:24 PM EDT
Astronomical Twilight 3:56 AM EDT 10:07 PM EDT
Moon 4:17 PM EDT (7/28) 1:06 AM EDT (7/28)
Length of Visible Light 15h 28m
Length of Day
14h 26m
Waxing Gibbous, 75% of the Moon is Illuminated
Jul 28
Waxing Gibbous
Aug 1
Full
Aug 9
Last Quarter
Aug 17
New
Aug 24
First Quarter

Hourly Weather History & Observations

Time (EDT) Temp. Heat Index Dew Point Humidity Pressure Visibility Wind Dir Wind Speed Gust Speed Precip Events Conditions
12:51 AM 80.1 °F 82.1 °F 66.0 °F 62% 29.86 in 10.0 mi Calm Calm - N/A   Partly Cloudy
1:51 AM 78.1 °F - 68.0 °F 71% 29.86 in 10.0 mi NE 3.5 mph - N/A   Partly Cloudy
2:51 AM 75.9 °F - 70.0 °F 82% 29.88 in 10.0 mi ENE 8.1 mph - N/A   Clear
3:38 AM 73.9 °F - 70.0 °F 87% 29.90 in 9.0 mi Variable 5.8 mph - N/A   Scattered Clouds
3:47 AM 73.4 °F - 69.8 °F 88% 29.91 in 8.0 mi Variable 4.6 mph - N/A   Mostly Cloudy
3:51 AM 73.9 °F - 70.0 °F 87% 29.88 in 8.0 mi ENE 9.2 mph - N/A   Mostly Cloudy
4:20 AM 73.9 °F - 70.0 °F 87% 29.90 in 7.0 mi ENE 5.8 mph - N/A   Scattered Clouds
4:42 AM 73.9 °F - 71.1 °F 91% 29.90 in 7.0 mi Variable 4.6 mph - N/A   Mostly Cloudy
4:51 AM 73.9 °F - 71.1 °F 91% 29.88 in 7.0 mi ENE 9.2 mph - N/A   Overcast
5:51 AM 73.9 °F - 71.1 °F 91% 29.89 in 6.0 mi NE 5.8 mph - N/A   Overcast
6:51 AM 73.0 °F - 70.0 °F 90% 29.90 in 4.0 mi East 8.1 mph - N/A   Overcast
7:51 AM 73.0 °F - 70.0 °F 90% 29.92 in 4.0 mi Variable 5.8 mph - N/A   Overcast
8:51 AM 73.0 °F - 71.1 °F 93% 29.92 in 4.0 mi East 5.8 mph - N/A   Overcast
9:51 AM 73.0 °F - 71.1 °F 93% 29.93 in 4.0 mi Variable 6.9 mph - N/A   Overcast
10:16 AM 73.0 °F - 71.1 °F 93% 29.96 in 3.0 mi Variable 5.8 mph - N/A   Overcast
10:51 AM 73.9 °F - 71.1 °F 91% 29.93 in 4.0 mi NE 4.6 mph - N/A   Overcast
11:34 AM 75.9 °F - 71.1 °F 85% 29.95 in 6.0 mi Variable 5.8 mph - N/A   Haze
11:51 AM 75.9 °F - 71.1 °F 85% 29.92 in 6.0 mi ENE 6.9 mph - N/A   Haze
12:51 PM 78.1 °F - 71.1 °F 79% 29.90 in 7.0 mi Variable 5.8 mph - N/A   Overcast
1:51 PM 75.9 °F - 71.1 °F 85% 29.91 in 7.0 mi East 3.5 mph - N/A   Overcast
2:07 PM 75.9 °F - 72.0 °F 87% 29.93 in 4.0 mi Variable 4.6 mph - 0.01 in Rain Light Rain
2:51 PM 75.0 °F - 73.0 °F 94% 29.90 in 5.0 mi Calm Calm - 0.01 in Rain Light Rain
3:24 PM 75.9 °F - 73.0 °F 91% 29.92 in 6.0 mi Variable 3.5 mph - 0.00 in   Overcast
3:51 PM 75.9 °F - 73.0 °F 91% 29.90 in 7.0 mi ENE 4.6 mph - 0.00 in   Overcast
4:42 PM 71.1 °F - 68.0 °F 90% 29.95 in 1.8 mi NNE 9.2 mph 18.4 mph 0.01 in Rain Heavy Rain
4:51 PM 70.0 °F - 68.0 °F 93% 29.93 in 1.5 mi Variable 6.9 mph 18.4 mph 0.06 in Rain Rain
4:53 PM 70.0 °F - 69.1 °F 97% 29.95 in 1.8 mi Variable 6.9 mph - 0.01 in Rain Rain
4:58 PM 70.0 °F - 69.1 °F 97% 29.95 in 0.8 mi Variable 6.9 mph - 0.07 in Rain Heavy Rain
5:06 PM 70.0 °F - 69.1 °F 97% 29.94 in 2.0 mi NE 9.2 mph - 0.11 in Rain Light Rain
5:11 PM 70.0 °F - 69.1 °F 97% 29.94 in 5.0 mi ENE 6.9 mph - 0.11 in Rain Light Rain
5:26 PM 70.0 °F - 69.1 °F 97% 29.94 in 9.0 mi ENE 5.8 mph - 0.11 in   Mostly Cloudy
5:51 PM 71.1 °F - 70.0 °F 96% 29.92 in 6.0 mi Calm Calm - 0.11 in Rain Light Rain
6:28 PM 71.1 °F - 69.1 °F 93% 29.94 in 7.0 mi Variable 3.5 mph - 0.00 in   Scattered Clouds
6:51 PM 70.0 °F - 69.1 °F 97% 29.91 in 7.0 mi ENE 4.6 mph - 0.00 in   Scattered Clouds
7:01 PM 70.0 °F - 69.1 °F 97% 29.94 in 5.0 mi Variable 5.8 mph - N/A   Mostly Cloudy
7:13 PM 70.0 °F - 68.0 °F 93% 29.94 in 7.0 mi Variable 3.5 mph - N/A   Mostly Cloudy
7:22 PM 70.0 °F - 68.0 °F 93% 29.95 in 7.0 mi Variable 3.5 mph - N/A   Scattered Clouds
7:51 PM 69.1 °F - 68.0 °F 96% 29.93 in 9.0 mi Variable 6.9 mph - N/A   Scattered Clouds
8:37 PM 70.0 °F - 68.0 °F 93% 29.95 in 10.0 mi Variable 4.6 mph - N/A   Mostly Cloudy
8:51 PM 70.0 °F - 68.0 °F 93% 29.93 in 9.0 mi Variable 4.6 mph - N/A   Overcast
9:51 PM 69.1 °F - 68.0 °F 96% 29.95 in 8.0 mi East 4.6 mph - 0.00 in Rain Light Rain
10:12 PM 69.1 °F - 68.0 °F 96% 29.96 in 6.0 mi Calm Calm - 0.00 in   Mostly Cloudy
10:35 PM 69.1 °F - 69.1 °F 100% 29.98 in 3.0 mi Calm Calm - 0.00 in   Mostly Cloudy
10:51 PM 69.1 °F - 68.0 °F 96% 29.95 in 5.0 mi Calm Calm - 0.00 in   Overcast
11:51 PM 69.1 °F - 66.0 °F 90% 29.88 in 10.0 mi ESE 11.5 mph 18.4 mph N/A   Mostly Cloudy